Terminal Aerodrome Forecast
Issued by NWS

Home | Current Version | Previous Version | Text Only | Print | Product List | Glossary On
Versions: 1 2 3 4 5 6 7 8 9 10 11 12 13 14 15 16 17 18 19 20 21 22 23 24 25 26 27 28
000
FTAK31 PAFA 162325
TAFASC
TAF
PASC 162325Z 1700/1724 VRB06KT P6SM FEW003 FEW100 SCT200
     FM170400 05012KT P6SM SCT015
     FM171000 06016KT 1 1/2SM BR OVC015=

USA.gov is the U.S. government's official web portal to all federal, state and local government web resources and services.